• en Suisse
  • Liste des pays
  • À 7 jours
  • Température de l'eau
  • Carte satellitaire
  • Carte météo
  • Widgets météo
  • user-avatar
    Se connecter

    Météo par heure à Ouina

    Ce jour, 19 Juillet, Jeudi

    Heure Température Précipitation Vent Pression Humidité
    00:00 +24°C° 0 mm 1 m/s 741 mmHg 99%
    01:00 +24°C° 0 mm 1 m/s 741 mmHg 99%
    02:00 +24°C° 0 mm 1 m/s 740 mmHg 99%
    03:00 +24°C° 0 mm 1 m/s 740 mmHg 99%
    04:00 +24°C° 0,1 mm 1 m/s 740 mmHg 99%
    05:00 +24°C° 0,1 mm 1 m/s 740 mmHg 99%
    06:00 +24°C° 0,1 mm 1 m/s 741 mmHg 99%
    07:00 +25°C° 0,1 mm 1 m/s 741 mmHg 93%
    08:00 +27°C° 0,1 mm 1 m/s 741 mmHg 87%
    09:00 +28°C° 0,1 mm 2 m/s 741 mmHg 80%
    10:00 +30°C° 0,1 mm 2 m/s 741 mmHg 71%
    11:00 +31°C° 0,1 mm 2 m/s 741 mmHg 62%
    12:00 +34°C° 0,1 mm 3 m/s 740 mmHg 53%
    13:00 +34°C° 0 mm 3 m/s 740 mmHg 51%
    14:00 +35°C° 0 mm 3 m/s 740 mmHg 50%
    15:00 +35°C° 0 mm 3 m/s 739 mmHg 48%
    16:00 +32°C° 0 mm 2 m/s 739 mmHg 56%
    17:00 +30°C° 0 mm 2 m/s 739 mmHg 65%
    18:00 +28°C° 0 mm 1 m/s 739 mmHg 74%
    19:00 +27°C° 0 mm 1 m/s 740 mmHg 80%
    20:00 +26°C° 0 mm 1 m/s 740 mmHg 86%
    21:00 +25°C° 0 mm 1 m/s 741 mmHg 92%
    22:00 +24°C° 0 mm 1 m/s 741 mmHg 94%
    23:00 +24°C° 0 mm 1 m/s 741 mmHg 97%

    Demain, 20 Juillet, Vendredi

    Heure Température Précipitation Vent Pression Humidité
    00:00 +24°C° 0 mm 1 m/s 741 mmHg 99%
    01:00 +24°C° 0,1 mm 1 m/s 740 mmHg 99%
    02:00 +24°C° 0,1 mm 1 m/s 740 mmHg 99%
    03:00 +24°C° 0,1 mm 1 m/s 740 mmHg 98%
    04:00 +24°C° 0,1 mm 1 m/s 740 mmHg 98%
    05:00 +22°C° 0,1 mm 0 m/s 740 mmHg 98%
    06:00 +22°C° 0,1 mm 0 m/s 740 mmHg 98%
    07:00 +26°C° 0,1 mm 1 m/s 741 mmHg 89%
    08:00 +27°C° 0,1 mm 1 m/s 741 mmHg 80%
    09:00 +29°C° 0,1 mm 2 m/s 741 mmHg 70%
    10:00 +31°C° 0 mm 2 m/s 741 mmHg 63%
    11:00 +33°C° 0 mm 3 m/s 740 mmHg 55%
    12:00 +35°C° 0 mm 3 m/s 740 mmHg 47%
    13:00 +35°C° 0 mm 3 m/s 740 mmHg 47%
    14:00 +35°C° 0 mm 3 m/s 739 mmHg 47%
    15:00 +35°C° 0 mm 3 m/s 739 mmHg 47%
    16:00 +32°C° 0,1 mm 2 m/s 739 mmHg 57%
    17:00 +30°C° 0,1 mm 2 m/s 739 mmHg 67%
    18:00 +28°C° 0,1 mm 2 m/s 739 mmHg 78%
    19:00 +27°C° 0 mm 1 m/s 740 mmHg 84%
    20:00 +26°C° 0 mm 1 m/s 740 mmHg 90%
    21:00 +24°C° 0 mm 1 m/s 741 mmHg 97%
    22:00 +24°C° 0,1 mm 1 m/s 741 mmHg 98%
    23:00 +24°C° 0,1 mm 1 m/s 741 mmHg 98%

    Après-demain, 21 Juillet, Samedi

    Heure Température Précipitation Vent Pression Humidité
    00:00 +24°C° 0,1 mm 1 m/s 741 mmHg 99%
    01:00 +24°C° 0,2 mm 1 m/s 740 mmHg 99%
    02:00 +24°C° 0,2 mm 1 m/s 740 mmHg 98%
    03:00 +24°C° 0,2 mm 1 m/s 739 mmHg 98%
    04:00 +24°C° 0,1 mm 1 m/s 739 mmHg 98%
    05:00 +24°C° 0,1 mm 1 m/s 740 mmHg 98%
    06:00 +24°C° 0,1 mm 1 m/s 740 mmHg 99%
    07:00 +26°C° 0,2 mm 1 m/s 740 mmHg 95%
    08:00 +27°C° 0,2 mm 1 m/s 740 mmHg 91%
    09:00 +28°C° 0,2 mm 2 m/s 740 mmHg 87%
    10:00 +29°C° 0,4 mm 2 m/s 740 mmHg 82%
    11:00 +30°C° 0,4 mm 2 m/s 740 mmHg 76%
    12:00 +31°C° 0,4 mm 3 m/s 740 mmHg 71%
    13:00 +31°C° 0,7 mm 2 m/s 739 mmHg 74%
    14:00 +30°C° 0,7 mm 2 m/s 739 mmHg 77%
    15:00 +30°C° 0,7 mm 2 m/s 738 mmHg 80%
    16:00 +29°C° 0,4 mm 2 m/s 739 mmHg 85%
    17:00 +27°C° 0,4 mm 1 m/s 739 mmHg 89%
    18:00 +26°C° 0,4 mm 1 m/s 739 mmHg 94%
    19:00 +26°C° 0,2 mm 1 m/s 740 mmHg 96%
    20:00 +25°C° 0,2 mm 1 m/s 740 mmHg 97%
    21:00 +25°C° 0,2 mm 1 m/s 741 mmHg 98%
    22:00 +25°C° 0,1 mm 1 m/s 741 mmHg 98%
    23:00 +25°C° 0,1 mm 1 m/s 741 mmHg 99%

    22 Juillet, Dimanche

    Heure Température Précipitation Vent Pression Humidité
    00:00 +24°C° 0,1 mm 1 m/s 740 mmHg 99%
    01:00 +24°C° 0,1 mm 1 m/s 740 mmHg 99%
    02:00 +24°C° 0,1 mm 1 m/s 740 mmHg 99%
    03:00 +24°C° 0,1 mm 1 m/s 739 mmHg 99%
    04:00 +24°C° 0,1 mm 1 m/s 739 mmHg 99%
    05:00 +24°C° 0,1 mm 1 m/s 740 mmHg 99%
    06:00 +24°C° 0,1 mm 1 m/s 740 mmHg 99%
    07:00 +26°C° 0,2 mm 1 m/s 740 mmHg 95%
    08:00 +27°C° 0,2 mm 2 m/s 741 mmHg 91%
    09:00 +28°C° 0,2 mm 2 m/s 741 mmHg 87%
    10:00 +29°C° 0,4 mm 2 m/s 741 mmHg 82%
    11:00 +30°C° 0,4 mm 2 m/s 740 mmHg 77%
    12:00 +31°C° 0,4 mm 2 m/s 740 mmHg 71%
    13:00 +31°C° 0,3 mm 2 m/s 740 mmHg 72%
    14:00 +30°C° 0,3 mm 2 m/s 739 mmHg 73%
    15:00 +30°C° 0,3 mm 2 m/s 739 mmHg 73%
    16:00 +29°C° 0,2 mm 2 m/s 739 mmHg 78%
    17:00 +28°C° 0,2 mm 1 m/s 739 mmHg 84%
    18:00 +27°C° 0,2 mm 1 m/s 739 mmHg 89%
    19:00 +26°C° 0,1 mm 1 m/s 740 mmHg 92%
    20:00 +26°C° 0,1 mm 1 m/s 740 mmHg 94%
    21:00 +25°C° 0,1 mm 1 m/s 741 mmHg 97%
    22:00 +25°C° 0,1 mm 1 m/s 741 mmHg 98%
    23:00 +24°C° 0,1 mm 1 m/s 740 mmHg 98%

    23 Juillet, Lundi

    Heure Température Précipitation Vent Pression Humidité
    00:00 +24°C° 0,1 mm 1 m/s 740 mmHg 99%
    01:00 +24°C° 0 mm 1 m/s 740 mmHg 99%
    02:00 +24°C° 0 mm 1 m/s 740 mmHg 99%
    03:00 +24°C° 0 mm 1 m/s 739 mmHg 99%
    04:00 +24°C° 0 mm 1 m/s 740 mmHg 99%
    05:00 +22°C° 0 mm 0 m/s 740 mmHg 99%
    06:00 +22°C° 0 mm 0 m/s 740 mmHg 99%
    07:00 +26°C° 0 mm 1 m/s 741 mmHg 91%
    08:00 +27°C° 0 mm 1 m/s 741 mmHg 83%
    09:00 +29°C° 0 mm 2 m/s 741 mmHg 75%
    10:00 +30°C° 0,1 mm 2 m/s 741 mmHg 68%
    11:00 +32°C° 0,1 mm 2 m/s 740 mmHg 61%
    12:00 +34°C° 0,1 mm 2 m/s 740 mmHg 54%
    13:00 +32°C° 0,5 mm 2 m/s 739 mmHg 59%
    14:00 +32°C° 0,5 mm 2 m/s 739 mmHg 64%
    15:00 +31°C° 0,5 mm 2 m/s 738 mmHg 68%
    16:00 +30°C° 0,2 mm 2 m/s 739 mmHg 74%
    17:00 +28°C° 0,2 mm 1 m/s 739 mmHg 80%
    18:00 +27°C° 0,2 mm 1 m/s 740 mmHg 85%
    19:00 +26°C° 0 mm 1 m/s 740 mmHg 89%
    20:00 +25°C° 0 mm 1 m/s 741 mmHg 93%
    21:00 +22°C° 0 mm 0 m/s 742 mmHg 97%
    22:00 +22°C° 0,1 mm 0 m/s 741 mmHg 97%
    23:00 +22°C° 0,1 mm 0 m/s 741 mmHg 98%

    24 Juillet, Mardi

    Heure Température Précipitation Vent Pression Humidité
    00:00 +22°C° 0,1 mm 0 m/s 741 mmHg 98%
    01:00 +22°C° 0,1 mm 0 m/s 741 mmHg 98%
    02:00 +22°C° 0,1 mm 0 m/s 741 mmHg 98%
    03:00 +22°C° 0,1 mm 0 m/s 740 mmHg 98%
    04:00 +22°C° 0 mm 0 m/s 741 mmHg 98%
    05:00 +22°C° 0 mm 0 m/s 741 mmHg 98%
    06:00 +22°C° 0 mm 0 m/s 741 mmHg 98%
    07:00 +24°C° 0 mm 0 m/s 741 mmHg 87%
    08:00 +28°C° 0 mm 1 m/s 742 mmHg 77%
    09:00 +30°C° 0 mm 1 m/s 742 mmHg 67%
    10:00 +30°C° 0 mm 1 m/s 741 mmHg 63%
    11:00 +31°C° 0 mm 1 m/s 741 mmHg 59%
    12:00 +32°C° 0 mm 2 m/s 741 mmHg 55%
    13:00 +32°C° 0 mm 2 m/s 740 mmHg 55%
    14:00 +32°C° 0 mm 2 m/s 740 mmHg 54%
    15:00 +32°C° 0 mm 2 m/s 739 mmHg 54%
    16:00 +31°C° 0,2 mm 1 m/s 740 mmHg 63%
    17:00 +29°C° 0,2 mm 1 m/s 740 mmHg 72%
    18:00 +27°C° 0,2 mm 1 m/s 740 mmHg 82%
    19:00 +27°C° 0 mm 1 m/s 741 mmHg 85%
    20:00 +26°C° 0 mm 1 m/s 741 mmHg 89%
    21:00 +23°C° 0 mm 0 m/s 742 mmHg 93%
    22:00 +23°C° 0 mm 0 m/s 742 mmHg 95%
    23:00 +23°C° 0 mm 0 m/s 742 mmHg 96%
    Voir plus